Tracking 20942 objects as of 10-Jul-2020
HD Live streaming from Space Station
objects crossing your sky now

COSMOS 482 DESCENT CRAFT

Track COSMOS 482 DESCENT CRAFT now!
10-day predictions
COSMOS 482 DESCENT CRAFT is classified as:


NORAD ID: 6073
Int'l Code: 1972-023E
Perigee: 207.7 km
Apogee: 2,256.3 km
Inclination: 52.0 °
Period: 110.0 minutes
Semi major axis: 7602 km
RCS: 0.7153 m2 (medium)
Launch date: March 31, 1972
Source: Commonwealth of Independent States (former USSR) (CIS)
Launch site: TYURATAM MISSILE AND SPACE COMPLEX (TTMTR)
aabbcc
Your satellite tracking list
Your tracking list is empty




NASA's NSSDC Master Catalog

Two Line Element Set (TLE):
1  6073U 72023E   20191.70323201  .00019649  64201-5  83852-4 0  9998
2  6073  52.0490 343.2824 1347241 106.1385 269.1708 13.09563014505106
Source of the keplerian elements: AFSPC